Location: Unspecified
(38.6830°S, 0.0000°E)
Time: 08:48:06
(UTC+00:00)

Envisat - Pass Details

Date: 01 June 2019
Orbit: 764 x 766 km, 98.1° (Epoch: 19 June)

Event Time Altitude Azimuth Distance (km) Brightness Sun altitude
Rises 05:30:35 0° 45° (NE) 3,228 7.2 -18.7°
Reaches altitude 10° 05:33:10 10° 56° (ENE) 2,311 6.6 -18.2°
Maximum altitude 05:37:23 27° 112° (ESE) 1,459 5.0 -17.4°
Drops below altitude 10° 05:41:39 10° 169° (SSE) 2,336 5.5 -16.6°
Sets 05:44:17 0° 180° (S) 3,270 6.1 -16.1°
